Location: Newark
(50.1751°N, 5.6239°W)
Time: 22:37:17
(UTC+00:00)

ISS - Pass Details

Date: 04 October 2021
Orbit: 417 x 423 km, 51.6° (Epoch: 18 October)

Event Time Altitude Azimuth Distance (km) Brightness Sun altitude
Rises 19:05:11 0° 286° (WNW) 2,365 2.0 -12.2°
Reaches altitude 10° 19:07:30 10° 272° (W) 1,499 0.5 -12.6°
Maximum altitude 19:10:19 25° 215° (SW) 888 -1.8 -13.0°
Drops below altitude 10° 19:13:12 10° 158° (SSE) 1,517 -1.2 -13.5°
Enters shadow 19:13:16 - 157° (SSE) 1,544 -1.2 -13.5°
